Time,TemperatureF,DewpointF,PressureIn,WindDirection,WindDirectionDegrees,WindSpeedMPH,WindSpeedGustMPH,Humidity,HourlyPrecipIn,Conditions,Clouds,dailyrainin,SolarRadiationWatts/m^2,SoftwareType,DateUTC
2013-08-01 00:32:00,69.0,32.0,-100.00,ESE,106,3.0,8.0,25,0.00,,,0.00,0.000000,,2013-08-01 06:32:00,
2013-08-01 00:42:00,69.0,32.0,-100.00,ESE,106,3.0,8.0,25,0.00,,,0.00,0.000000,,2013-08-01 06:42:00,
2013-08-01 00:52:00,69.0,32.0,-100.00,ESE,106,3.0,8.0,25,0.00,,,0.00,0.000000,,2013-08-01 06:52:00,
2013-08-01 01:22:00,68.0,33.0,-100.00,South,177,1.0,9.0,27,0.00,,,0.00,0.000000,,2013-08-01 07:22:00,
2013-08-01 01:32:00,68.0,33.0,-100.00,South,177,1.0,9.0,27,0.00,,,0.00,0.000000,,2013-08-01 07:32:00,
2013-08-01 01:43:00,68.0,33.0,-100.00,South,177,1.0,9.0,27,0.00,,,0.00,0.000000,,2013-08-01 07:43:00,
2013-08-01 01:52:00,68.0,33.0,-100.00,South,177,1.0,9.0,27,0.00,,,0.00,0.000000,,2013-08-01 07:52:00,
2013-08-01 02:23:00,64.0,33.0,-100.00,ESE,107,0.0,7.0,31,0.00,,,0.00,0.000000,,2013-08-01 08:23:00,
2013-08-01 02:35:00,64.0,33.0,-100.00,ESE,107,0.0,7.0,31,0.00,,,0.00,0.000000,,2013-08-01 08:35:00,
2013-08-01 02:43:00,64.0,33.0,-100.00,ESE,107,0.0,7.0,31,0.00,,,0.00,0.000000,,2013-08-01 08:43:00,
2013-08-01 02:55:00,64.0,33.0,-100.00,ESE,107,0.0,7.0,31,0.00,,,0.00,0.000000,,2013-08-01 08:55:00,
2013-08-01 03:27:00,67.0,35.0,-100.00,ESE,118,3.0,6.0,30,0.00,,,0.00,0.000000,,2013-08-01 09:27:00,
2013-08-01 04:38:00,64.0,34.0,-100.00,WNW,286,5.0,12.0,33,0.00,,,0.00,0.000000,,2013-08-01 10:38:00,
2013-08-01 04:55:00,64.0,34.0,-100.00,WNW,286,5.0,12.0,33,0.00,,,0.00,0.000000,,2013-08-01 10:55:00,
2013-08-01 05:29:00,64.0,34.0,-100.00,ESE,111,7.0,19.0,33,0.00,,,0.00,0.000000,,2013-08-01 11:29:00,
2013-08-01 05:45:00,64.0,34.0,-100.00,ESE,111,7.0,19.0,33,0.00,,,0.00,0.000000,,2013-08-01 11:45:00,
2013-08-01 05:56:00,64.0,34.0,-100.00,ESE,111,7.0,19.0,33,0.00,,,0.00,0.000000,,2013-08-01 11:56:00,
2013-08-01 06:28:00,61.0,36.0,-100.00,WNW,291,0.0,21.0,39,0.00,,,0.00,0.000000,,2013-08-01 12:28:00,
2013-08-01 06:35:00,61.0,36.0,-100.00,WNW,291,0.0,21.0,39,0.00,,,0.00,0.000000,,2013-08-01 12:35:00,
2013-08-01 06:54:00,61.0,36.0,-100.00,WNW,291,0.0,21.0,39,0.00,,,0.00,0.000000,,2013-08-01 12:54:00,
2013-08-01 07:37:00,62.0,37.0,-100.00,North,0,0.0,8.0,40,0.00,,,0.00,5.000000,,2013-08-01 13:37:00,
2013-08-01 07:45:00,62.0,37.0,-100.00,North,0,0.0,8.0,40,0.00,,,0.00,5.000000,,2013-08-01 13:45:00,
2013-08-01 11:27:00,61.0,50.0,-100.00,West,276,3.0,8.0,67,-99.99,,,0.00,201.000000,,2013-08-01 17:27:00,
2013-08-01 11:38:00,61.0,50.0,-100.00,West,276,3.0,8.0,67,-99.99,,,0.00,201.000000,,2013-08-01 17:38:00,
2013-08-01 11:47:00,61.0,50.0,-100.00,West,276,3.0,8.0,67,-99.99,,,0.00,201.000000,,2013-08-01 17:47:00,
2013-08-01 11:55:00,61.0,50.0,-100.00,West,276,3.0,8.0,67,-99.99,,,0.00,201.000000,,2013-08-01 17:55:00,
2013-08-01 12:28:00,66.0,45.0,-100.00,WNW,294,1.0,13.0,47,0.00,,,0.00,635.000000,,2013-08-01 18:28:00,
2013-08-01 12:36:00,66.0,45.0,-100.00,WNW,294,1.0,13.0,47,0.00,,,0.00,635.000000,,2013-08-01 18:36:00,
2013-08-01 12:47:00,66.0,45.0,-100.00,WNW,294,1.0,13.0,47,0.00,,,0.00,635.000000,,2013-08-01 18:47:00,
2013-08-01 12:53:00,66.0,45.0,-100.00,WNW,294,1.0,13.0,47,0.00,,,0.00,635.000000,,2013-08-01 18:53:00,
2013-08-01 14:25:00,59.0,54.0,-100.00,West,261,0.0,11.0,84,0.06,,,0.06,446.000000,,2013-08-01 20:25:00,
2013-08-01 14:35:00,59.0,54.0,-100.00,West,261,0.0,11.0,84,0.06,,,0.06,446.000000,,2013-08-01 20:35:00,
2013-08-01 14:45:00,59.0,54.0,-100.00,West,261,0.0,11.0,84,0.06,,,0.06,446.000000,,2013-08-01 20:45:00,
2013-08-01 15:34:00,56.0,54.0,-100.00,ESE,105,1.0,8.0,94,0.06,,,0.12,35.000000,,2013-08-01 21:34:00,
2013-08-01 15:43:00,56.0,54.0,-100.00,ESE,105,1.0,8.0,94,0.06,,,0.12,35.000000,,2013-08-01 21:43:00,
2013-08-01 15:53:00,56.0,54.0,-100.00,ESE,105,1.0,8.0,94,0.06,,,0.12,35.000000,,2013-08-01 21:53:00,
2013-08-01 16:22:00,55.0,52.0,-100.00,SE,137,1.0,8.0,88,0.11,,,0.23,92.000000,,2013-08-01 22:22:00,
2013-08-01 16:35:00,55.0,52.0,-100.00,SE,137,1.0,8.0,88,0.11,,,0.23,92.000000,,2013-08-01 22:35:00,
2013-08-01 16:53:00,55.0,52.0,-100.00,SE,137,1.0,8.0,88,0.11,,,0.23,92.000000,,2013-08-01 22:53:00,
2013-08-01 17:32:00,60.0,51.0,-100.00,SE,131,2.0,8.0,73,0.00,,,0.23,563.000000,,2013-08-01 23:32:00,
2013-08-01 18:25:00,58.0,50.0,-100.00,SSE,148,6.0,13.0,76,0.00,,,0.23,179.000000,,2013-08-02 00:25:00,
2013-08-01 18:34:00,58.0,50.0,-100.00,SSE,148,6.0,13.0,76,0.00,,,0.23,179.000000,,2013-08-02 00:34:00,
2013-08-01 18:45:00,58.0,50.0,-100.00,SSE,148,6.0,13.0,76,0.00,,,0.23,179.000000,,2013-08-02 00:45:00,
2013-08-01 18:53:00,58.0,50.0,-100.00,SSE,148,6.0,13.0,76,0.00,,,0.23,179.000000,,2013-08-02 00:53:00,
2013-08-01 19:25:00,57.0,53.0,-100.00,NNE,12,1.0,17.0,88,0.00,,,0.23,142.000000,,2013-08-02 01:25:00,
2013-08-01 19:35:00,57.0,53.0,-100.00,NNE,12,1.0,17.0,88,0.00,,,0.23,142.000000,,2013-08-02 01:35:00,
2013-08-01 19:44:00,57.0,53.0,-100.00,NNE,12,1.0,17.0,88,0.00,,,0.23,142.000000,,2013-08-02 01:44:00,
2013-08-01 19:53:00,57.0,53.0,-100.00,NNE,12,1.0,17.0,88,0.00,,,0.23,142.000000,,2013-08-02 01:53:00,
2013-08-01 20:24:00,56.0,52.0,-100.00,North,352,0.0,14.0,87,0.00,,,0.23,58.000000,,2013-08-02 02:24:00,
2013-08-01 20:34:00,56.0,52.0,-100.00,North,352,0.0,14.0,87,0.00,,,0.23,58.000000,,2013-08-02 02:34:00,
2013-08-01 20:44:00,56.0,52.0,-100.00,North,352,0.0,14.0,87,0.00,,,0.23,58.000000,,2013-08-02 02:44:00,
2013-08-01 20:52:00,56.0,52.0,-100.00,North,352,0.0,14.0,87,0.00,,,0.23,58.000000,,2013-08-02 02:52:00,
2013-08-01 21:23:00,55.0,50.0,-100.00,NE,44,1.0,6.0,83,0.00,,,0.23,10.000000,,2013-08-02 03:23:00,
2013-08-01 21:53:00,55.0,50.0,-100.00,NE,44,1.0,6.0,83,0.00,,,0.23,10.000000,,2013-08-02 03:53:00,
2013-08-01 22:22:00,56.0,49.0,-100.00,NNW,333,5.0,10.0,77,0.00,,,0.23,0.000000,,2013-08-02 04:22:00,
2013-08-01 22:33:00,56.0,49.0,-100.00,NNW,333,5.0,10.0,77,0.00,,,0.23,0.000000,,2013-08-02 04:33:00,
2013-08-01 22:43:00,56.0,49.0,-100.00,NNW,333,5.0,10.0,77,0.00,,,0.23,0.000000,,2013-08-02 04:43:00,
2013-08-01 22:53:00,56.0,49.0,-100.00,NNW,333,5.0,10.0,77,0.00,,,0.23,0.000000,,2013-08-02 04:53:00,
2013-08-01 23:22:00,54.0,46.0,-100.00,SW,228,6.0,9.0,74,0.00,,,0.23,0.000000,,2013-08-02 05:22:00,
2013-08-01 23:32:00,54.0,46.0,-100.00,SW,228,6.0,9.0,74,0.00,,,0.23,0.000000,,2013-08-02 05:32:00,
2013-08-01 23:43:00,54.0,46.0,-100.00,SW,228,6.0,9.0,74,0.00,,,0.23,0.000000,,2013-08-02 05:43:00,
2013-08-01 23:53:00,54.0,46.0,-100.00,SW,228,6.0,9.0,74,0.00,,,0.23,0.000000,,2013-08-02 05:53:00,